Seattle, WA
on Tuesday, January 1, 2013

Tuesday
Previous Day Next Day
Daily Summary
 ActualAverageRecord
Temperature
Mean Temperature °F / °C 41°F / 5°C  
Max Temperature 41°F / 5°C 46°F / 8°C 58°F / 14°C (2006)
Min Temperature 27°F / -3°C 36°F / 2°C 10°F / -12°C (1952)
Degree Days
Heating Degree Days 31 24  
Month to date heating degree days 31 24  
Since 1 July heating degree days 1782 1962  
Cooling Degree Days 0 0  
Month to date cooling degree days 0 0  
Year to date cooling degree days 0 0  
Moisture
Dew Point 27°F / -3°C   
Average Humidity 73    
Maximum Humidity 85    
Minimum Humidity 60    
Precipitation
Precipitation 0.00 in / 0.00 cm 0.18 in / 4.57 cm 1.37 in / 3.48 cm (1964)
Month to date precipitation 0.00 0.18  
Year to date precipitation 0.00 0.18  
Snow
Snow 0.00 in / 0.00 cm in / cm 6.80 in / 17.27 cm (1950)
Month to date snowfall 0.0  
Since 1 July snowfall 0.6  
Snow Depth 0.00 in / 0.00 cm   
Wind
Wind Speed 6 mph / 10 km/h   
Max Wind Speed 14 mph / 23 km/h   
Max Gust Speed 17 mph / 27 km/h   
Visibility 10 miles / 16 kilometers   
Events     

Key: T is trace of precipitation, MM is missing value
Source: NWS Daily Summary
Time(PST)TemperatureDew PointHumidity Pressure Visibility Wind DirectionWind SpeedGust SpeedPrecipitationEvents Conditions
12:25 AM 33.8°F / 1.0°C 24.8°F / -4.0°C 70% 30.45 in / 1031.0 hPa 10.0 miles / 16.1 kilometers ESE 3.5 mph / 5.6 km/h - N/A   Mostly Cloudy
12:53 AM 33.1°F / 0.6°C 26.1°F / -3.3°C 75% 30.49 in / 1032.4 hPa 10.0 miles / 16.1 kilometers ENE 4.6 mph / 7.4 km/h - N/A   Overcast
1:35 AM 33.8°F / 1.0°C 26.6°F / -3.0°C 75% 30.46 in / 1031.4 hPa 10.0 miles / 16.1 kilometers East 4.6 mph / 7.4 km/h - N/A   Scattered Clouds
1:53 AM 32.0°F / 0.0°C 25.0°F / -3.9°C 75% 30.50 in / 1032.6 hPa 10.0 miles / 16.1 kilometers ENE 4.6 mph / 7.4 km/h - N/A   Partly Cloudy
2:53 AM 30.0°F / -1.1°C 25.0°F / -3.9°C 82% 30.51 in / 1033.2 hPa 10.0 miles / 16.1 kilometers NE 5.8 mph / 9.3 km/h - N/A   Partly Cloudy
3:53 AM 30.9°F / -0.6°C 26.1°F / -3.3°C 82% 30.49 in / 1032.4 hPa 10.0 miles / 16.1 kilometers East 3.5 mph / 5.6 km/h - N/A   Clear
4:53 AM 30.0°F / -1.1°C 25.0°F / -3.9°C 82% 30.47 in / 1031.8 hPa 10.0 miles / 16.1 kilometers ESE 6.9 mph / 11.1 km/h - N/A   Clear
5:53 AM 28.9°F / -1.7°C 23.0°F / -5.0°C 78% 30.46 in / 1031.5 hPa 10.0 miles / 16.1 kilometers SSE 4.6 mph / 7.4 km/h - N/A   Clear
6:53 AM 28.0°F / -2.2°C 21.9°F / -5.6°C 78% 30.47 in / 1031.7 hPa 10.0 miles / 16.1 kilometers NNE 3.5 mph / 5.6 km/h - N/A   Clear
7:53 AM 30.9°F / -0.6°C 21.9°F / -5.6°C 69% 30.48 in / 1032.0 hPa 10.0 miles / 16.1 kilometers ENE 5.8 mph / 9.3 km/h - N/A   Partly Cloudy
8:53 AM 32.0°F / 0.0°C 26.1°F / -3.3°C 79% 30.52 in / 1033.4 hPa 10.0 miles / 16.1 kilometers NNE 5.8 mph / 9.3 km/h - N/A   Partly Cloudy
9:53 AM 35.1°F / 1.7°C 28.0°F / -2.2°C 76% 30.51 in / 1033.1 hPa 10.0 miles / 16.1 kilometers North 3.5 mph / 5.6 km/h - N/A   Partly Cloudy
10:53 AM 37.9°F / 3.3°C 28.0°F / -2.2°C 68% 30.51 in / 1033.0 hPa 10.0 miles / 16.1 kilometers North 5.8 mph / 9.3 km/h - N/A   Partly Cloudy
11:53 AM 37.9°F / 3.3°C 28.0°F / -2.2°C 68% 30.48 in / 1032.2 hPa 10.0 miles / 16.1 kilometers North 4.6 mph / 7.4 km/h - N/A   Partly Cloudy
12:53 PM 39.9°F / 4.4°C 28.0°F / -2.2°C 63% 30.46 in / 1031.5 hPa 10.0 miles / 16.1 kilometers North 5.8 mph / 9.3 km/h - N/A   Partly Cloudy
1:53 PM 41.0°F / 5.0°C 28.0°F / -2.2°C 60% 30.46 in / 1031.3 hPa 10.0 miles / 16.1 kilometers North 5.8 mph / 9.3 km/h - N/A   Mostly Cloudy
2:53 PM 41.0°F / 5.0°C 30.9°F / -0.6°C 67% 30.45 in / 1031.2 hPa 10.0 miles / 16.1 kilometers North 6.9 mph / 11.1 km/h - N/A   Mostly Cloudy
3:53 PM 39.0°F / 3.9°C 30.0°F / -1.1°C 70% 30.44 in / 1030.8 hPa 10.0 miles / 16.1 kilometers North 6.9 mph / 11.1 km/h - N/A   Mostly Cloudy
4:53 PM 37.0°F / 2.8°C 30.0°F / -1.1°C 76% 30.43 in / 1030.5 hPa 10.0 miles / 16.1 kilometers North 11.5 mph / 18.5 km/h - N/A   Mostly Cloudy
5:53 PM 37.0°F / 2.8°C 30.0°F / -1.1°C 76% 30.43 in / 1030.3 hPa 10.0 miles / 16.1 kilometers North 11.5 mph / 18.5 km/h - N/A   Scattered Clouds
6:53 PM 37.0°F / 2.8°C 30.0°F / -1.1°C 76% 30.41 in / 1029.6 hPa 10.0 miles / 16.1 kilometers NNE 11.5 mph / 18.5 km/h - N/A   Partly Cloudy
7:53 PM 34.0°F / 1.1°C 28.9°F / -1.7°C 82% 30.39 in / 1029.1 hPa 10.0 miles / 16.1 kilometers North 6.9 mph / 11.1 km/h - N/A   Partly Cloudy
8:53 PM 35.1°F / 1.7°C 30.0°F / -1.1°C 82% 30.39 in / 1029.1 hPa 10.0 miles / 16.1 kilometers NNE 5.8 mph / 9.3 km/h - N/A   Clear
9:53 PM 33.1°F / 0.6°C 28.9°F / -1.7°C 85% 30.40 in / 1029.2 hPa 10.0 miles / 16.1 kilometers NNE 6.9 mph / 11.1 km/h - N/A   Clear
10:53 PM 33.1°F / 0.6°C 28.9°F / -1.7°C 85% 30.38 in / 1028.6 hPa 10.0 miles / 16.1 kilometers NE 5.8 mph / 9.3 km/h - N/A   Partly Cloudy
11:53 PM 30.9°F / -0.6°C 28.0°F / -2.2°C 89% 30.38 in / 1028.5 hPa 10.0 miles / 16.1 kilometers NNE 3.5 mph / 5.6 km/h - N/A   Scattered Clouds
Moon Phase
Jan. 01 Jan. 04 Jan. 11 Jan. 18 Jan. 26
Sunrise:07:56 AM (PST) Moon Rise:09:26 PM (PST)1/1
Sunset:04:29 PM (PST) Moon Set:09:52 AM (PST)1/1

Copyright © 2014 The Weather Underground, Inc.